Location: Newark
(45.1000°N, 8.5833°E)
Time: 06:04:48
(UTC+00:00)

ISS - Pass Details

Date: 23 September 2019
Orbit: 411 x 421 km, 51.6° (Epoch: 20 October)

Event Time Altitude Azimuth Distance (km) Brightness Sun altitude
Rises 18:29:52 0° 247° (WSW) 2,337 1.0 -12.7°
Reaches altitude 10° 18:31:58 10° 251° (WSW) 1,477 -0.1 -13.1°
Maximum altitude 18:35:16 65° 334° (NNW) 458 -3.5 -13.6°
Enters shadow 18:37:42 17° 54° (NE) 1,141 -1.9 -14.0°
